User: anonymous   Login
Location: Klein M�hlingen
(51.9472°N, 11.7453°E)
Time: 17:44:52
(UTC+00:00)
Language:

Cosmos 1500 Rocket - Orbit

View from above orbital plane
View from above orbital plane
View from above satellite
View from above satellite

Ground track
Ground track

The orbit data is extracted from the following two-line orbital elements,

1 14373U 83099B   20185.22795361  .00000053  00000-0  34543-5 0  9990
2 14373  82.5411 285.1942 0020900 152.8482 269.0219 14.83791366985776
Epoch (UTC): 03 July 2020 05:28:15
Eccentricity: 0.0020900
inclination: 82.5411°
perigee height: 603 km
apogee height: 632 km
right ascension of ascending node: 285.1942°
argument of perigee: 152.8482°
revolutions per day: 14.83791366
mean anomaly at epoch: 269.0219°
orbit number at epoch: 98577

The dashed part of the orbit path shows where the satellite is in the earth's shadow,  

DLR